Watertown, NY

3:36 AM EDT on March 24, 2017 (GMT -0400)
Watertown International

Weather History for KART - November, 2012

Change the Weather History Date:

Thursday, November 8, 2012

  Actual Average Record
Temperature  
Mean Temperature 31 °F 41 °F  
Max Temperature 43 °F 50 °F 70 °F (1975)
Min Temperature 19 °F 32 °F 11 °F (1991)
Degree Days  
Heating Degree Days 34 24  
Month to date heating degree days 237 183  
Since 1 July heating degree days 789 979  
Cooling Degree Days 0 0  
Month to date cooling degree days 0 0  
Year to date cooling degree days 607 362  
Moisture  
Dew Point 22 °F    
Average Humidity 71    
Maximum Humidity 92    
Minimum Humidity 49    
Precipitation  
Precipitation 0.00 in 0.13 in 2.62 in (1996)
Month to date precipitation 0.45 1.00  
Year to date precipitation 29.22 30.17  
Sea Level Pressure  
Sea Level Pressure 30.08 in    
Wind  
Wind Speed 7 mph (NNE)    
Max Wind Speed 17 mph    
Max Gust Speed 24 mph    
Visibility 10 miles    
Events      
T = Trace of Precipitation, MM = Missing Value Source: NWS Daily Summary

Daily Weather History Graph

Daily Weather History Graph

Search for Another Location

Airport or City:

Trip Planner

Search our weather history database for the weather conditions in past years. The results will help you decide how hot, cold, wet, or windy it might be!

Date:

Astronomy

Nov. 08, 2012 Rise Set
Actual Time 6:50 AM EST 4:44 PM EST
Civil Twilight 6:19 AM EST 5:15 PM EST
Nautical Twilight 5:45 AM EST 5:49 PM EST
Astronomical Twilight 5:11 AM EST 6:23 PM EST
Moon 12:31 AM EST (11/8) 1:35 PM EST (11/8)
Length of Visible Light 10h 55m
Length of Day
9h 54m
Waning Crescent, 33% of the Moon is Illuminated
Nov 8
Waning Crescent
Nov 13
New
Nov 20
First Quarter
Nov 28
Full
Dec 6
Last Quarter

Hourly Weather History & Observations

Time (EST) Temp. Windchill Dew Point Humidity Pressure Visibility Wind Dir Wind Speed Gust Speed Precip Events Conditions
12:56 AM 28.9 °F 21.1 °F 21.0 °F 72% 30.07 in 10.0 mi NNE 8.1 mph - N/A   Clear
1:56 AM 28.4 °F 19.7 °F 21.2 °F 74% 30.05 in 10.0 mi NNE 9.2 mph - N/A   Clear
2:56 AM 28.0 °F 19.3 °F 21.9 °F 78% 30.07 in 10.0 mi NE 9.2 mph - N/A   Clear
3:56 AM 28.9 °F 20.4 °F 21.0 °F 72% 30.06 in 10.0 mi NNE 9.2 mph - N/A   Clear
4:56 AM 28.0 °F 20.0 °F 21.9 °F 78% 30.07 in 10.0 mi NE 8.1 mph - N/A   Clear
5:51 AM 26.6 °F 20.0 °F 21.2 °F 80% 30.06 in 10.0 mi NE 5.8 mph - N/A   Mostly Cloudy
5:56 AM 27.0 °F 20.5 °F 21.9 °F 81% 30.08 in 10.0 mi NNE 5.8 mph - N/A   Mostly Cloudy
6:56 AM 28.0 °F 20.8 °F 23.0 °F 81% 30.09 in 10.0 mi NNE 6.9 mph - N/A   Overcast
7:32 AM 26.6 °F 20.0 °F 23.0 °F 86% 30.08 in 10.0 mi North 5.8 mph - N/A   Scattered Clouds
7:56 AM 28.0 °F 20.0 °F 21.9 °F 78% 30.10 in 10.0 mi North 8.1 mph - N/A   Scattered Clouds
8:06 AM 28.4 °F 21.2 °F 21.2 °F 74% 30.09 in 10.0 mi North 6.9 mph - N/A   Mostly Cloudy
8:56 AM 30.9 °F 22.8 °F 23.0 °F 72% 30.11 in 10.0 mi North 9.2 mph - N/A   Mostly Cloudy
9:12 AM 32.0 °F 24.8 °F 23.0 °F 69% 30.09 in 10.0 mi North 8.1 mph - N/A   Scattered Clouds
9:56 AM 35.1 °F 26.4 °F 24.1 °F 64% 30.10 in 10.0 mi NNE 12.7 mph 21.9 mph N/A   Partly Cloudy
10:56 AM 37.0 °F 28.9 °F 24.1 °F 59% 30.09 in 10.0 mi NNE 12.7 mph 20.7 mph N/A   Clear
11:56 AM 39.0 °F 30.6 °F 24.1 °F 55% 30.08 in 10.0 mi NE 15.0 mph 20.7 mph N/A   Clear
12:56 PM 39.9 °F 33.4 °F 25.0 °F 55% 30.06 in 10.0 mi NNE 10.4 mph - N/A   Clear
1:56 PM 41.0 °F 35.2 °F 25.0 °F 53% 30.05 in 10.0 mi North 9.2 mph - N/A   Clear
2:56 PM 42.1 °F 36.1 °F 25.0 °F 51% 30.05 in 10.0 mi North 10.4 mph - N/A   Clear
3:56 PM 39.9 °F 34.5 °F 24.1 °F 53% 30.05 in 10.0 mi NNW 8.1 mph - N/A   Clear
4:56 PM 36.0 °F 33.3 °F 24.1 °F 62% 30.06 in 10.0 mi NW 3.5 mph - N/A   Clear
5:56 PM 28.9 °F - 21.9 °F 75% 30.08 in 10.0 mi Calm Calm - N/A   Clear
6:56 PM 25.0 °F - 19.9 °F 81% 30.09 in 10.0 mi Calm Calm - N/A   Clear
7:56 PM 24.1 °F - 19.9 °F 84% 30.09 in 10.0 mi Calm Calm - N/A   Clear
8:56 PM 21.9 °F - 19.0 °F 89% 30.09 in 10.0 mi Calm Calm - N/A   Clear
9:56 PM 19.9 °F - 18.0 °F 92% 30.08 in 10.0 mi Calm Calm - N/A   Clear
10:56 PM 19.0 °F - 17.1 °F 92% 30.07 in 10.0 mi Calm Calm - N/A   Clear
11:56 PM 19.0 °F - 17.1 °F 92% 30.07 in 10.0 mi Calm Calm - N/A   Clear